Atmospheric History
02/08/2018 18:02  to  2/9/2018 18:02
Change End Date:
To complete the export process:
1) Select all of the data below
2) Copy the data to the clipboard
3) Open a word processor such as Notepad
4) Paste the data into the word processor
5) Save the file

Date/Time (MST), AirTemp, RH, Dewpoint ,AvgWindSpeed, GustWindSpeed, WindDirection, PrecipType, PrecipIntensity, PrecipAccumulation, PrecipRate
02/09/2018 17:56, -1, 72, -8 ,0, 0, S, None, None, ,  
02/09/2018 17:49, -1, 72, -8 ,0, 0, SE, None, None, ,  
02/09/2018 17:45, -1, 72, -8 ,0, 1, SE, None, None, ,  
02/09/2018 17:35, -1, 72, -7 ,0, 1, SE, None, None, ,  
02/09/2018 17:34, -1, 72, -7 ,1, 1, SE, None, None, ,  
02/09/2018 17:25, -1, 72, -7 ,1, 1, S, None, None, ,  
02/09/2018 17:19, 0, 72, -7 ,1, 1, S, None, None, ,  
02/09/2018 17:15, 0, 72, -7 ,1, 1, S, None, None, ,  
02/09/2018 17:05, 0, 73, -6 ,1, 2, S, None, None, ,  
02/09/2018 17:04, 0, 73, -6 ,1, 2, S, None, None, ,  
02/09/2018 16:55, 1, 73, -6 ,2, 2, SW, None, None, ,  
02/09/2018 16:49, 1, 73, -5 ,1, 2, S, None, None, ,  
02/09/2018 16:45, 1, 73, -5 ,2, 2, S, None, None, ,  
02/09/2018 16:35, 2, 73, -5 ,2, 4, S, None, None, ,  
02/09/2018 16:34, 2, 73, -5 ,3, 4, S, None, None, ,  
02/09/2018 16:25, 3, 73, -4 ,3, 4, S, None, None, ,  
02/09/2018 16:19, 3, 73, -3 ,2, 3, S, None, None, ,  
02/09/2018 16:15, 3, 73, -4 ,2, 3, S, None, None, ,  
02/09/2018 16:05, 3, 73, -4 ,2, 3, S, None, None, ,  
02/09/2018 16:04, 3, 73, -4 ,2, 3, S, None, None, ,  
02/09/2018 15:55, 3, 73, -4 ,3, 4, S, None, None, ,  
02/09/2018 15:49, 3, 73, -3 ,3, 4, S, None, None, ,  
02/09/2018 15:45, 4, 73, -3 ,3, 4, S, None, None, ,  
02/09/2018 15:35, 5, 74, -1 ,2, 3, SW, None, None, ,  
02/09/2018 15:34, 5, 74, -1 ,2, 3, S, None, None, ,  
02/09/2018 15:25, 5, 74, -1 ,2, 4, SW, None, None, ,  
02/09/2018 15:19, 7, 74, 0 ,2, 4, SW, None, None, ,  
02/09/2018 15:14, 8, 75, 1 ,1, 2, W, None, None, ,  
02/09/2018 15:04, 8, 75, 1 ,0, 1, NW, None, None, ,  
02/09/2018 15:04, 8, 75, 1 ,0, 1, NW, None, None, ,  
02/09/2018 14:54, 8, 75, 2 ,0, 1, NW, None, None, ,  
02/09/2018 14:49, 9, 76, 3 ,1, 1, NW, None, None, ,  
02/09/2018 14:44, 11, 76, 5 ,1, 1, N, None, None, ,  
02/09/2018 14:34, 10, 76, 4 ,1, 1, N, None, None, ,  
02/09/2018 14:34, 10, 76, 4 ,1, 1, N, None, None, ,  
02/09/2018 14:24, 8, 75, 2 ,1, 2, N, None, None, ,  
02/09/2018 14:19, 9, 75, 2 ,1, 1, N, None, None, ,  
02/09/2018 14:14, 8, 75, 2 ,0, 1, N, None, None, ,  
02/09/2018 14:04, 10, 75, 4 ,1, 2, N, None, None, ,  
02/09/2018 14:04, 10, 75, 3 ,1, 2, N, None, None, ,  
02/09/2018 13:54, 9, 75, 3 ,2, 3, N, None, None, ,  
02/09/2018 13:49, 9, 75, 2 ,2, 3, N, None, None, ,  
02/09/2018 13:44, 8, 75, 2 ,2, 4, N, None, None, ,  
02/09/2018 13:34, 7, 74, 1 ,3, 4, N, None, None, ,  
02/09/2018 13:34, 7, 74, 1 ,3, 4, N, None, None, ,  
02/09/2018 13:24, 7, 74, 1 ,3, 4, N, None, None, ,  
02/09/2018 13:19, 6, 74, 0 ,4, 4, N, None, None, ,  
02/09/2018 13:14, 5, 73, -2 ,3, 5, N, None, None, ,  
02/09/2018 13:04, 3, 73, -3 ,4, 5, N, None, None, ,  
02/09/2018 13:04, 3, 73, -3 ,4, 5, N, None, None, ,  
02/09/2018 12:54, 3, 73, -3 ,4, 6, N, None, None, ,  
02/09/2018 12:49, 4, 73, -3 ,4, 5, N, None, None, ,  
02/09/2018 12:44, 5, 73, -2 ,2, 4, N, None, None, ,  
02/09/2018 12:34, 2, 72, -4 ,3, 6, N, None, None, ,  
02/09/2018 12:34, 2, 72, -4 ,3, 6, N, None, None, ,  
02/09/2018 12:23, 2, 72, -5 ,4, 6, NE, None, None, ,  
02/09/2018 12:19, 2, 72, -5 ,4, 5, NE, None, None, ,  
02/09/2018 12:13, 1, 72, -5 ,4, 6, NE, None, None, ,  
02/09/2018 12:04, 2, 72, -5 ,4, 5, N, None, None, ,  
02/09/2018 12:03, 2, 72, -5 ,4, 5, NE, None, None, ,  
02/09/2018 11:53, 1, 72, -5 ,2, 5, NE, Yes, , ,  
02/09/2018 11:49, 1, 72, -5 ,3, 7, NE, Yes, , ,  
02/09/2018 11:43, 1, 72, -6 ,6, 7, N, None, None, ,  
02/09/2018 11:34, 0, 72, -6 ,6, 7, N, None, None, ,  
02/09/2018 11:33, 0, 72, -6 ,7, 7, NE, None, None, ,  
02/09/2018 11:23, 1, 72, -6 ,6, 7, N, None, None, ,  
02/09/2018 11:19, 1, 72, -6 ,6, 7, N, None, None, ,  
02/09/2018 11:13, 1, 72, -6 ,6, 7, N, Yes, , ,  
02/09/2018 11:04, 2, 73, -5 ,5, 6, N, Yes, , ,  
02/09/2018 11:03, 2, 73, -4 ,5, 7, N, Yes, , ,  
02/09/2018 10:53, 2, 72, -5 ,6, 8, N, None, None, ,  
02/09/2018 10:49, 2, 72, -5 ,7, 8, N, Yes, , ,  
02/09/2018 10:43, 1, 72, -5 ,6, 9, N, Yes, , ,  
02/09/2018 10:34, 0, 72, -7 ,7, 9, N, None, None, ,  
02/09/2018 10:33, 0, 72, -7 ,7, 10, N, None, None, ,  
02/09/2018 10:23, -1, 72, -7 ,7, 10, N, None, None, ,  
02/09/2018 10:19, -1, 72, -7 ,9, 10, N, None, None, ,  
02/09/2018 10:13, -1, 72, -8 ,8, 9, N, None, None, ,  
02/09/2018 10:04, -2, 72, -9 ,6, 7, N, None, None, ,  
02/09/2018 10:03, -2, 72, -9 ,5, 7, N, None, None, ,  
02/09/2018 09:52, -2, 72, -9 ,7, 8, N, None, None, ,  
02/09/2018 09:49, -2, 72, -9 ,7, 8, N, None, None, ,  
02/09/2018 09:42, -1, 72, -8 ,7, 9, N, None, None, ,  
02/09/2018 09:34, -2, 71, -9 ,8, 9, N, None, None, ,  
02/09/2018 09:32, -2, 71, -9 ,9, 9, N, None, None, ,  
02/09/2018 09:22, -4, 71, -10 ,9, 10, N, None, None, ,  
02/09/2018 09:19, -4, 71, -11 ,9, 10, N, None, None, ,  
02/09/2018 09:12, -3, 71, -10 ,9, 9, N, None, None, ,  
02/09/2018 09:04, -3, 72, -9 ,9, 10, N, None, None, ,  
02/09/2018 09:02, -3, 72, -9 ,9, 10, N, Yes, , ,  
02/09/2018 08:52, -3, 72, -10 ,9, 10, N, None, None, ,  
02/09/2018 08:49, -3, 72, -10 ,9, 10, N, None, None, ,  
02/09/2018 08:42, -3, 72, -10 ,6, 8, NE, None, None, ,  
02/09/2018 08:34, -3, 72, -10 ,7, 8, NE, None, None, ,  
02/09/2018 08:32, -3, 72, -10 ,7, 7, NE, None, None, ,  
02/09/2018 08:22, -3, 72, -10 ,6, 7, N, None, None, ,  
02/09/2018 08:19, -3, 72, -10 ,6, 7, N, None, None, ,  
02/09/2018 08:12, -3, 72, -10 ,5, 6, N, None, None, ,  
02/09/2018 08:04, -3, 72, -10 ,5, 6, N, Yes, , ,  
02/09/2018 08:02, -3, 72, -10 ,4, 6, N, Yes, , ,  
02/09/2018 07:52, -3, 72, -10 ,4, 5, N, Yes, , ,  
02/09/2018 07:49, -3, 72, -10 ,4, 6, N, Yes, , ,  
02/09/2018 07:42, -3, 72, -10 ,5, 6, N, Yes, , ,  
02/09/2018 07:34, -3, 72, -10 ,4, 5, N, Yes, , ,  
02/09/2018 07:32, -3, 72, -10 ,4, 5, N, Yes, , ,  
02/09/2018 07:22, -3, 72, -10 ,4, 4, N, Yes, , ,  
02/09/2018 07:19, -3, 72, -10 ,4, 4, N, Yes, , ,  
02/09/2018 07:12, -3, 72, -10 ,4, 6, N, Yes, , ,  
02/09/2018 07:04, -3, 72, -10 ,4, 6, N, Yes, , ,  
02/09/2018 07:02, -3, 72, -10 ,4, 7, N, Yes, , ,  
02/09/2018 06:51, -3, 72, -10 ,7, 9, N, None, None, ,  
02/09/2018 06:49, -3, 72, -10 ,7, 9, N, None, None, ,  
02/09/2018 06:41, -3, 72, -10 ,7, 9, N, None, None, ,  
02/09/2018 06:34, -3, 72, -10 ,7, 9, N, None, None, ,  
02/09/2018 06:31, -3, 72, -10 ,7, 9, NE, None, None, ,  
02/09/2018 06:21, -3, 72, -10 ,8, 10, NE, None, None, ,  
02/09/2018 06:19, -3, 72, -10 ,8, 10, NE, None, None, ,  
02/09/2018 06:11, -3, 72, -10 ,9, 11, NE, None, None, ,  
02/09/2018 06:04, -3, 72, -10 ,8, 10, NE, None, None, ,  
02/09/2018 06:01, -3, 72, -10 ,9, 10, N, None, None, ,  
02/09/2018 05:51, -3, 72, -10 ,10, 12, N, None, None, ,  
02/09/2018 05:49, -3, 72, -10 ,11, 12, N, None, None, ,  
02/09/2018 05:41, -3, 72, -10 ,10, 12, N, None, None, ,  
02/09/2018 05:34, -3, 72, -10 ,11, 12, N, Yes, , ,  
02/09/2018 05:31, -3, 72, -10 ,10, 12, NE, None, None, ,  
02/09/2018 05:21, -3, 72, -10 ,10, 12, NE, None, None, ,  
02/09/2018 05:19, -3, 72, -10 ,11, 12, NE, None, None, ,  
02/09/2018 05:11, -3, 72, -9 ,10, 11, NE, None, None, ,  
02/09/2018 05:04, -3, 72, -9 ,9, 10, NE, None, None, ,  
02/09/2018 05:01, -3, 72, -9 ,9, 11, NE, None, None, ,  
02/09/2018 04:51, -2, 72, -9 ,10, 12, NE, None, None, ,  
02/09/2018 04:49, -2, 72, -9 ,10, 12, NE, None, None, ,  
02/09/2018 04:41, -2, 72, -9 ,11, 11, N, None, None, ,  
02/09/2018 04:34, -2, 72, -9 ,10, 12, N, None, None, ,  
02/09/2018 04:31, -2, 72, -9 ,11, 12, N, None, None, ,  
02/09/2018 04:21, -2, 72, -9 ,9, 11, NE, None, None, ,  
02/09/2018 04:19, -2, 72, -9 ,9, 11, NE, None, None, ,  
02/09/2018 04:10, -2, 72, -9 ,9, 11, NE, None, None, ,  
02/09/2018 04:04, -2, 72, -9 ,10, 11, NE, None, None, ,  
02/09/2018 04:00, -2, 72, -9 ,10, 11, N, None, None, ,  
02/09/2018 03:50, -2, 72, -9 ,9, 9, NE, None, None, ,  
02/09/2018 03:49, -2, 72, -9 ,9, 9, NE, None, None, ,  
02/09/2018 03:40, -2, 72, -9 ,9, 10, NE, None, None, ,  
02/09/2018 03:34, -2, 72, -8 ,9, 11, NE, Yes, , ,  
02/09/2018 03:30, -2, 72, -8 ,10, 11, NE, Yes, , ,  
02/09/2018 03:20, -1, 72, -8 ,9, 10, NE, None, None, ,  
02/09/2018 03:19, -1, 72, -8 ,9, 10, NE, None, None, ,  
02/09/2018 03:10, -1, 72, -8 ,7, 10, NE, Yes, , ,  
02/09/2018 03:04, -1, 72, -8 ,7, 10, NE, Yes, , ,  
02/09/2018 03:00, -1, 72, -8 ,9, 10, NE, Yes, , ,  
02/09/2018 02:50, -1, 72, -8 ,8, 10, NE, Yes, , ,  
02/09/2018 02:49, -1, 72, -8 ,9, 10, NE, Yes, , ,  
02/09/2018 02:40, -1, 72, -8 ,7, 9, NE, Yes, , ,  
02/09/2018 02:34, -1, 72, -7 ,9, 9, NE, Yes, , ,  
02/09/2018 02:30, -1, 72, -7 ,7, 9, NE, Yes, , ,  
02/09/2018 02:20, -1, 72, -7 ,7, 9, N, Yes, , ,  
02/09/2018 02:19, -1, 72, -7 ,7, 9, NE, Yes, , ,  
02/09/2018 02:10, -1, 72, -7 ,7, 9, NE, Yes, , ,  
02/09/2018 02:04, -1, 72, -7 ,7, 9, NE, None, None, ,  
02/09/2018 02:00, -1, 72, -7 ,7, 9, NE, None, None, ,  
02/09/2018 01:50, -1, 72, -7 ,7, 9, NE, Yes, , ,  
02/09/2018 01:49, -1, 72, -7 ,7, 9, NE, None, None, ,  
02/09/2018 01:40, -1, 72, -7 ,8, 9, NE, None, None, ,  
02/09/2018 01:34, -1, 72, -7 ,7, 9, NE, None, None, ,  
02/09/2018 01:30, -1, 72, -7 ,7, 12, NE, None, None, ,  
02/09/2018 01:19, -1, 72, -7 ,11, 11, NE, None, None, ,  
02/09/2018 01:09, -1, 72, -7 ,10, 11, NE, None, None, ,  
02/09/2018 01:04, -1, 72, -7 ,10, 11, NE, None, None, ,  
02/09/2018 00:59, -1, 72, -7 ,11, 12, NE, None, None, ,  
02/09/2018 00:49, -1, 72, -7 ,11, 12, NE, None, None, ,  
02/09/2018 00:49, -1, 72, -7 ,11, 12, NE, None, None, ,  
02/09/2018 00:39, 0, 72, -7 ,9, 11, NE, None, None, ,  
02/09/2018 00:34, 0, 72, -7 ,9, 9, NE, None, None, ,  
02/09/2018 00:29, 0, 72, -7 ,7, 11, NE, None, None, ,  
02/09/2018 00:19, 0, 72, -7 ,9, 12, NE, None, None, ,  
02/09/2018 00:19, 0, 72, -7 ,9, 12, NE, None, None, ,  
02/09/2018 00:09, 0, 72, -7 ,9, 12, NE, Yes, , ,  
02/09/2018 00:04, 0, 72, -7 ,9, 12, NE, None, None, ,  
02/08/2018 23:59, 0, 72, -7 ,11, 13, NE, None, None, ,  
02/08/2018 23:49, 0, 72, -7 ,11, 13, NE, None, None, ,  
02/08/2018 23:49, 0, 72, -7 ,11, 13, NE, None, None, ,  
02/08/2018 23:39, 0, 72, -7 ,10, 13, NE, None, None, ,  
02/08/2018 23:34, 0, 72, -7 ,12, 13, NE, None, None, ,  
02/08/2018 23:29, -1, 72, -7 ,11, 12, NE, None, None, ,  
02/08/2018 23:19, -1, 72, -8 ,7, 11, NE, None, None, ,  
02/08/2018 23:19, -1, 72, -7 ,7, 11, NE, None, None, ,  
02/08/2018 23:09, -1, 73, -7 ,11, 13, NE, None, None, ,  
02/08/2018 23:04, -1, 73, -7 ,9, 12, NE, None, None, ,  
02/08/2018 22:59, 0, 73, -7 ,11, 12, NE, Yes, , ,  
02/08/2018 22:49, 1, 73, -6 ,11, 14, NE, None, None, ,  
02/08/2018 22:49, 1, 73, -6 ,10, 14, NE, None, None, ,  
02/08/2018 22:38, 1, 73, -6 ,12, 16, NE, None, None, ,  
02/08/2018 22:34, 1, 73, -6 ,14, 16, NE, None, None, ,  
02/08/2018 22:28, 1, 73, -6 ,12, 14, NE, None, None, ,  
02/08/2018 22:19, 1, 73, -6 ,11, 14, NE, None, None, ,  
02/08/2018 22:18, 1, 73, -6 ,11, 14, NE, None, None, ,  
02/08/2018 22:08, 1, 73, -5 ,11, 14, NE, None, None, ,  
02/08/2018 22:04, 1, 73, -5 ,10, 15, NE, None, None, ,  
02/08/2018 21:58, 1, 73, -5 ,13, 15, NE, None, None, ,  
02/08/2018 21:49, 2, 73, -5 ,11, 12, NE, Yes, , ,  
02/08/2018 21:48, 2, 73, -5 ,11, 12, NE, Yes, , ,  
02/08/2018 21:38, 2, 74, -5 ,9, 11, NE, Yes, , ,  
02/08/2018 21:34, 2, 74, -4 ,8, 11, NE, Yes, , ,  
02/08/2018 21:28, 2, 74, -4 ,9, 12, NE, None, None, ,  
02/08/2018 21:19, 2, 74, -4 ,11, 12, NE, None, None, ,  
02/08/2018 21:18, 2, 74, -4 ,11, 12, NE, None, None, ,  
02/08/2018 21:08, 2, 74, -4 ,10, 12, N, None, None, ,  
02/08/2018 21:04, 2, 74, -4 ,10, 14, N, None, None, ,  
02/08/2018 20:58, 2, 74, -4 ,12, 15, N, None, None, ,  
02/08/2018 20:49, 3, 74, -4 ,13, 15, NE, None, None, ,  
02/08/2018 20:48, 2, 74, -4 ,14, 15, NE, None, None, ,  
02/08/2018 20:38, 3, 74, -3 ,12, 15, NE, None, None, ,  
02/08/2018 20:34, 3, 74, -3 ,12, 14, NE, None, None, ,  
02/08/2018 20:28, 3, 74, -3 ,13, 14, N, None, None, ,  
02/08/2018 20:19, 3, 74, -3 ,12, 16, N, Yes, , ,  
02/08/2018 20:18, 4, 74, -3 ,12, 17, N, Yes, , ,  
02/08/2018 20:08, 4, 74, -3 ,16, 17, N, None, None, ,  
02/08/2018 20:04, 4, 74, -3 ,15, 17, N, None, None, ,  
02/08/2018 19:58, 4, 74, -3 ,14, 15, NE, None, None, ,  
02/08/2018 19:49, 4, 74, -3 ,14, 16, NE, None, None, ,  
02/08/2018 19:47, 4, 74, -3 ,13, 16, NE, None, None, ,  
02/08/2018 19:37, 4, 74, -3 ,14, 18, NE, None, None, ,  
02/08/2018 19:34, 4, 74, -3 ,15, 18, NE, None, None, ,  
02/08/2018 19:27, 4, 74, -2 ,14, 18, NE, None, None, ,  
02/08/2018 19:19, 4, 74, -2 ,12, 16, NE, None, None, ,  
02/08/2018 19:17, 4, 74, -2 ,12, 16, N, None, None, ,  
02/08/2018 19:07, 4, 74, -2 ,13, 16, N, None, None, ,  
02/08/2018 19:04, 4, 74, -2 ,14, 16, N, None, None, ,  
02/08/2018 18:57, 4, 74, -2 ,13, 17, NE, None, None, ,  
02/08/2018 18:49, 4, 74, -2 ,15, 16, NE, None, None, ,  
02/08/2018 18:47, 5, 74, -2 ,14, 16, NE, None, None, ,  
02/08/2018 18:37, 5, 74, -1 ,14, 16, NE, None, None, ,  
02/08/2018 18:34, 5, 74, -1 ,14, 16, NE, None, None, ,  
02/08/2018 18:27, 5, 74, -1 ,14, 17, NE, None, None, ,  
02/08/2018 18:19, 5, 74, -1 ,13, 16, NE, None, None, ,  
02/08/2018 18:17, 5, 74, -1 ,12, 16, NE, None, None, ,  
02/08/2018 18:07, 5, 75, -1 ,11, 12, NE, None, None, ,  
02/08/2018 18:04, 5, 75, -1 ,9, 13, NE, None, None, ,  
Change End Date:

Copyright © 1998-2015 Vaisala, Inc.
All Rights Reserved
Send comments about the data to:
SCAN Web ® is a registered trademark of Vaisala, Inc.
SCAN Web Version 6.0